Le nostre stazioni meteo in Italia

Pubblicità
Il mio iltempo24.it
Chillingham Barns, Gran Bretagna (99196): Temperatura & dewpoint: 31.05.2020 09:00:00 - 06.06.2020 09:00:00 (BST)Chillingham Barns, Gran Bretagna (99196): precipitazioni: 31.05.2020 09:00:00 - 06.06.2020 09:00:00 (BST)
Data & Tempo tt [°C] td [°C] rr [mm]
06.06.2020 09:00:00 8,7 7,9 1,2
06.06.2020 08:00:00 8,3 7,7 1,8
06.06.2020 07:00:00 7,8 7,2 1,2
06.06.2020 06:00:00 7,9 6,0 0,2
06.06.2020 05:00:00 8,4 5,5 0,2
06.06.2020 04:00:00 7,8 6,4 1,2
06.06.2020 03:00:00 8,1 5,7 0,0
06.06.2020 02:00:00 8,1 5,1 0,0
06.06.2020 01:00:00 8,0 4,5 0,0
06.06.2020 00:00:00 7,9 4,1 0,0
05.06.2020 23:00:00 6,4 4,6 0,6
05.06.2020 22:00:00 6,1 4,6 1,8
05.06.2020 21:00:00 7,1 4,8 0,6
05.06.2020 20:00:00 7,8 5,2 0,8
05.06.2020 19:00:00 10,5 3,6 0,2
05.06.2020 18:00:00 11,3 2,1 1,0
05.06.2020 17:00:00 11,3 4,2 0,2
05.06.2020 16:00:00 13,4 3,4 0,0
05.06.2020 15:00:00 10,6 1,9 0,0
05.06.2020 14:00:00 10,5 4,3 0,6
05.06.2020 13:00:00 12,2 3,7 0,0
05.06.2020 12:00:00 11,5 2,3 0,0
05.06.2020 11:00:00 10,3 3,9 0,0
05.06.2020 10:00:00 8,0 3,6 0,0
05.06.2020 09:00:00 9,1 3,5 0,0
05.06.2020 08:00:00 8,1 3,9 0,0
05.06.2020 07:00:00 6,5 4,1 0,0
05.06.2020 06:00:00 6,1 4,8 0,0
05.06.2020 05:00:00 6,1 4,9 0,0
05.06.2020 04:00:00 5,9 5,1 0,0
05.06.2020 03:00:00 6,0 5,7 0,2
05.06.2020 02:00:00 5,9 5,5 0,0
05.06.2020 01:00:00 7,1 6,7 0,0
05.06.2020 00:00:00 7,2 6,6 0,0
04.06.2020 23:00:00 7,6 6,7 0,2
04.06.2020 22:00:00 7,9 6,7 0,0
04.06.2020 21:00:00 8,1 6,4 0,0
04.06.2020 20:00:00 8,5 6,0 1,2
04.06.2020 19:00:00 9,4 4,2 0,0
04.06.2020 18:00:00 10,5 4,6 0,0
04.06.2020 17:00:00 10,1 3,5 0,0
04.06.2020 16:00:00 12,9 5,2 0,0
04.06.2020 15:00:00 11,6 5,1 0,0
04.06.2020 14:00:00 11,5 5,5 0,0
04.06.2020 13:00:00 11,9 5,8 0,0
04.06.2020 12:00:00 11,2 5,6 0,0
04.06.2020 11:00:00 11,9 5,6 0,0
04.06.2020 10:00:00 10,1 4,9 0,0
04.06.2020 09:00:00 9,9 5,6 0,0
04.06.2020 08:00:00 8,7 6,2 0,0
04.06.2020 07:00:00 8,3 6,2 0,0
04.06.2020 06:00:00 7,7 6,5 0,0
04.06.2020 05:00:00 7,4 6,6 0,0
04.06.2020 04:00:00 7,4 6,3 0,0
04.06.2020 03:00:00 7,7 6,4 0,0
04.06.2020 02:00:00 7,9 6,4 0,0
04.06.2020 01:00:00 7,8 6,3 0,0
04.06.2020 00:00:00 8,0 6,0 0,0
03.06.2020 23:00:00 8,3 6,5 0,0
03.06.2020 22:00:00 8,6 6,9 0,0
03.06.2020 21:00:00 9,0 7,3 0,0
03.06.2020 20:00:00 9,5 7,7 0,0
03.06.2020 19:00:00 9,4 8,0 0,0
03.06.2020 18:00:00 9,2 8,2 1,4
03.06.2020 17:00:00 10,5 7,7 0,0
03.06.2020 16:00:00 11,2 7,2 0,0
03.06.2020 15:00:00 11,3 7,1 0,0
03.06.2020 14:00:00 10,7 6,9 0,0
03.06.2020 13:00:00 10,6 6,4 0,0
03.06.2020 12:00:00 9,8 6,3 0,0
03.06.2020 11:00:00 9,2 6,1 0,0
03.06.2020 10:00:00 9,2 6,8 0,0
03.06.2020 09:00:00 8,9 6,9 0,0
03.06.2020 08:00:00 8,8 6,9 0,2
03.06.2020 07:00:00 8,8 7,8 0,2
03.06.2020 06:00:00 8,8 8,2 1,2
03.06.2020 05:00:00 9,0 8,2 1,2
03.06.2020 04:00:00 9,3 8,7 1,6
03.06.2020 03:00:00 9,7 9,2 2,2
03.06.2020 02:00:00 10,3 9,7 1,2
03.06.2020 01:00:00 10,9 10,1 0,2
03.06.2020 00:00:00 11,2 10,5 0,2
02.06.2020 23:00:00 11,4 10,7 0,8
02.06.2020 22:00:00 12,1 11,2 1,8
02.06.2020 21:00:00 12,7 10,9 0,2
02.06.2020 20:00:00 15,8 11,1 0,0
02.06.2020 19:00:00 16,1 10,8 0,0
02.06.2020 18:00:00 16,6 12,7 0,2
02.06.2020 17:00:00 16,5 9,7 0,2
02.06.2020 16:00:00 17,4 8,5 0,0
02.06.2020 15:00:00 20,0 7,8 0,0
02.06.2020 14:00:00 23,6 7,0 0,0
02.06.2020 13:00:00 23,4 8,4 0,0
02.06.2020 12:00:00 21,0 6,2 0,0
02.06.2020 11:00:00 19,4 5,2 0,0
02.06.2020 10:00:00 - - -
02.06.2020 09:00:00 - - -
02.06.2020 08:00:00 14,8 5,4 0,0
02.06.2020 07:00:00 10,8 6,7 0,0
02.06.2020 06:00:00 8,5 5,1 0,0
02.06.2020 05:00:00 6,7 4,9 0,0
02.06.2020 04:00:00 8,2 5,2 0,0
02.06.2020 03:00:00 8,4 6,0 0,0
02.06.2020 02:00:00 9,8 7,2 0,0
02.06.2020 01:00:00 10,9 7,6 0,0
02.06.2020 00:00:00 11,4 7,8 0,0
01.06.2020 23:00:00 11,9 8,7 0,0
01.06.2020 22:00:00 13,1 8,1 0,0
01.06.2020 21:00:00 14,2 9,7 0,0
01.06.2020 20:00:00 15,9 9,5 0,0
01.06.2020 19:00:00 16,8 8,9 0,0
01.06.2020 18:00:00 18,3 9,7 0,0
01.06.2020 17:00:00 19,1 8,4 0,0
01.06.2020 16:00:00 19,8 7,1 0,0
01.06.2020 15:00:00 19,8 6,9 0,0
01.06.2020 14:00:00 20,2 6,4 0,0
01.06.2020 13:00:00 19,9 6,8 0,0
01.06.2020 12:00:00 19,8 7,1 0,0
01.06.2020 11:00:00 19,9 6,4 0,0
01.06.2020 10:00:00 18,5 7,4 0,0
01.06.2020 09:00:00 16,4 9,8 0,0
01.06.2020 08:00:00 13,4 10,9 0,0
01.06.2020 07:00:00 8,0 7,4 0,0
01.06.2020 06:00:00 5,3 4,9 0,0
01.06.2020 05:00:00 5,1 4,5 0,0
01.06.2020 04:00:00 5,4 4,6 0,0
01.06.2020 03:00:00 6,4 5,0 0,0
01.06.2020 02:00:00 6,7 5,5 0,0
01.06.2020 01:00:00 7,5 5,7 0,0
01.06.2020 00:00:00 10,2 7,4 0,0
31.05.2020 23:00:00 10,6 7,3 0,0
31.05.2020 22:00:00 12,5 7,2 0,0
31.05.2020 21:00:00 13,9 6,8 0,0
31.05.2020 20:00:00 15,7 6,0 0,0
31.05.2020 19:00:00 16,8 6,9 0,0
31.05.2020 18:00:00 18,5 7,1 0,0
31.05.2020 17:00:00 19,0 6,7 0,0
31.05.2020 16:00:00 19,9 7,8 0,0
31.05.2020 15:00:00 19,8 7,0 0,0
31.05.2020 14:00:00 19,7 8,5 0,0
31.05.2020 13:00:00 19,2 8,1 0,0
31.05.2020 12:00:00 18,3 8,0 0,0
31.05.2020 11:00:00 18,9 5,0 0,0
31.05.2020 10:00:00 17,4 8,3 0,0
31.05.2020 09:00:00 14,9 10,6 0,0

tt = Temperatura
td = dewpoint
rr = precipitazioni

Stazioni seguenti

WeatherPro
AMSI
MeteoEarth